Location: Gwatt
(46.7204°N, 7.6223°E)
Time: 21:49:26
(UTC+00:00)

Tiros 1 despin weight - Pass Details

Date: 27 January 2021
Orbit: 593 x 642 km, 48.2° (Epoch: 08 March)

Event Time Altitude Azimuth Distance (km) Brightness Sun altitude
Rises 19:26:28 0° 279° (W) 2,847 ? -30.9°
Reaches altitude 10° 19:30:01 10° 250° (WSW) 1,931 ? -31.5°
Maximum altitude 19:31:51 12° 225° (SW) 1,770 ? -31.8°
Enters shadow 19:32:22 12° 218° (SW) 1,781 ? -31.9°
